Wind_Speed
24 25 26 26 27 27 26 25 24 24 25 25 26 27 27 27 27 26 24 23 23 23 22 23 23 23 24 24 24 24 24 24 24 23 22 22 21 20 19 18 17 17 17 16 15 15 14 13 13
27 27 28 29 29 29 28 27 27 27 28 29 29 30 30 30 29 28 27 26 25 25 25 25 25 25 25 26 26 26 26 26 26 25 25 24 23 22 21 20 19 19 18 17 17 16 15 15 14
29 30 31 32 32 31 30 30 30 31 32 33 33 33 33 33 32 31 30 29 28 27 27 27 28 27 27 27 28 28 27 27 27 27 27 26 25 24 23 22 21 20 20 19 18 17 17 16 16
31 31 33 34 33 33 33 34 34 35 35 36 37 37 36 36 35 34 33 32 31 30 30 30 30 30 30 29 29 29 29 29 29 29 28 28 27 26 25 24 23 22 22 21 21 20 19 18 17
33 34 35 35 35 36 36 37 38 38 38 39 39 39 39 38 38 37 37 36 34 33 32 32 32 33 32 32 32 32 31 31 31 31 30 30 29 29 27 26 25 24 23 23 22 22 20 19 19
35 36 37 37 37 38 39 40 40 40 40 41 42 42 41 41 41 40 39 39 38 37 36 35 35 35 34 34 34 34 34 33 33 33 32 32 31 30 29 28 27 26 25 25 24 23 22 21 20
36 37 38 39 40 40 41 42 43 42 42 43 44 45 43 43 43 43 42 42 41 40 39 38 38 37 37 36 36 36 36 35 35 35 34 34 33 33 31 30 30 28 27 26 25 25 24 22 22
37 39 40 41 41 42 43 45 45 45 44 44 45 46 46 45 45 45 45 45 44 43 42 41 40 40 40 39 39 38 38 37 37 37 36 36 35 34 33 32 31 31 29 28 27 26 25 24 23
37 39 40 41 42 43 44 45 46 47 46 46 47 48 47 48 47 46 46 47 46 45 44 44 43 43 42 42 41 41 40 39 39 38 38 38 37 36 35 34 33 32 31 30 29 27 27 26 25
36 38 39 40 41 42 43 45 46 47 48 48 48 49 50 50 50 48 47 48 48 47 47 47 46 45 45 45 44 43 43 42 41 40 40 39 38 38 36 36 35 33 32 31 30 29 28 27 26
35 37 37 38 40 41 42 44 45 47 48 49 49 49 50 51 51 50 49 50 50 49 49 49 49 48 48 48 47 47 46 45 44 43 42 41 40 39 38 37 36 35 34 33 32 30 29 28 28
34 35 36 37 38 40 41 42 42 44 46 48 49 50 50 52 52 52 52 52 52 51 51 51 51 51 50 50 50 49 49 48 46 45 44 43 42 41 39 39 38 37 35 34 33 32 31 30 29
32 33 34 34 35 36 38 38 40 42 43 45 48 50 51 53 53 54 54 54 55 53 53 52 53 53 53 53 52 52 51 51 49 47 46 45 44 42 41 40 39 38 37 35 34 33 33 32 31
31 31 32 33 34 35 35 35 38 40 41 43 45 47 49 52 52 52 52 52 54 55 55 55 55 56 56 55 54 53 53 53 52 50 48 48 46 44 42 41 41 39 38 37 36 35 34 33 32
29 29 30 32 32 33 33 32 34 36 38 39 41 43 46 49 50 49 50 52 54 55 56 55 56 57 57 57 57 56 55 55 54 53 51 49 47 46 45 43 42 41 40 39 38 36 35 35 34
28 28 29 30 31 31 32 30 31 33 35 35 37 40 42 44 45 46 47 49 51 53 55 56 57 57 57 58 59 58 57 57 56 55 53 52 50 48 46 45 44 43 42 41 40 38 37 36 35
28 28 28 29 30 31 30 28 27 30 32 32 34 36 39 40 41 43 46 48 49 50 53 54 54 56 57 58 58 59 59 58 57 56 55 54 52 50 49 47 46 44 44 42 41 40 39 37 36
28 28 28 29 30 30 29 26 25 28 30 31 32 34 36 39 39 41 43 46 47 48 49 51 52 53 54 55 56 58 58 59 58 58 57 55 54 52 50 48 47 46 45 45 43 42 41 39 37
29 28 28 29 29 27 26 25 26 26 27 28 30 32 34 36 38 38 39 41 43 46 47 48 50 50 51 52 54 56 57 57 58 58 58 56 55 54 52 50 48 47 46 46 45 44 42 41 39
31 29 29 28 29 27 25 25 25 25 25 26 28 30 32 34 35 36 36 38 41 42 44 46 48 49 49 50 51 53 55 56 57 57 57 57 57 56 53 51 50 48 46 46 46 46 44 43 41
30 30 29 29 28 27 27 25 23 23 24 25 26 28 30 31 33 35 34 34 36 38 41 42 44 45 44 47 50 52 53 55 56 56 56 56 57 57 54 53 51 50 47 48 48 46 45 43 42
30 30 30 28 29 27 28 28 22 23 23 24 24 25 26 27 29 31 33 32 33 35 38 40 42 41 42 44 48 51 52 53 54 55 55 54 56 57 55 53 52 52 49 48 48 47 46 45 43
32 32 31 29 28 28 27 27 24 25 24 24 24 24 24 25 26 28 31 30 30 33 36 39 40 41 41 43 45 47 49 51 52 53 54 54 54 56 55 53 52 51 50 47 48 48 46 45 43
32 32 32 30 29 28 27 28 28 27 26 25 25 24 23 23 24 26 28 29 29 32 34 36 37 39 40 41 44 44 45 49 52 54 53 53 54 54 54 53 52 51 51 49 49 49 46 44 43
33 33 33 32 31 29 29 29 29 28 26 26 26 26 23 23 23 25 26 27 27 29 31 33 35 36 39 40 41 43 44 47 50 52 52 52 53 53 52 53 51 50 49 49 49 49 47 44 43
33 34 33 33 32 31 29 28 27 27 26 26 26 26 24 24 23 24 25 26 26 28 30 31 32 34 36 39 40 40 42 45 47 49 49 49 50 51 51 51 51 49 47 48 48 48 46 44 43
33 33 32 32 34 33 31 28 26 26 26 26 25 25 24 24 24 24 25 25 26 27 28 28 30 32 34 36 38 39 41 44 46 47 48 48 48 48 50 51 50 50 48 47 47 46 45 43 42
33 33 33 33 34 35 33 30 28 27 27 27 26 25 24 24 24 25 24 24 25 25 26 27 29 30 31 33 34 36 39 42 44 47 48 48 47 47 48 49 49 49 48 46 45 43 43 43 41
32 33 34 34 34 35 34 30 29 29 29 29 27 25 25 24 23 23 22 22 24 24 26 26 28 30 31 34 35 35 38 42 44 46 48 47 46 46 46 49 49 48 47 46 44 43 42 43 42
34 34 34 34 34 35 36 32 30 29 29 29 28 25 24 23 22 22 23 22 23 24 25 28 28 29 30 32 34 35 37 40 43 46 47 48 46 45 46 46 47 47 46 45 44 43 43 41 40
Wind_Direction
273 271 269 268 267 266 266 265 264 261 259 258 256 255 254 253 252 252 251 248 247 246 245 245 243 242 241 241 242 243 244 244 246 247 248 250 252 253 255 257 258 258 257 258 260 264 268 272 277
274 272 270 269 268 268 268 267 264 262 260 259 258 257 256 255 253 252 250 249 248 246 245 244 244 243 242 242 242 242 243 244 245 246 247 249 251 253 254 256 258 258 257 257 258 262 266 270 275
274 272 271 270 269 270 270 267 265 263 261 259 258 257 257 256 254 252 250 249 248 247 246 245 244 244 243 243 243 243 243 244 244 245 246 248 250 252 254 255 256 257 257 256 257 259 263 267 273
274 273 272 271 270 270 270 268 265 263 260 259 258 257 257 257 256 254 252 250 249 247 247 246 246 245 245 245 245 245 244 244 245 245 246 246 248 251 253 254 255 256 256 256 256 258 261 265 270
275 274 274 273 272 271 270 269 266 265 262 260 259 258 257 256 256 254 252 250 249 248 247 246 245 245 245 245 245 246 245 245 245 245 246 246 247 249 252 253 254 255 255 255 255 257 259 263 268
276 276 275 274 273 271 270 268 266 265 263 262 260 258 257 256 255 254 252 251 249 249 248 247 246 246 246 245 245 246 246 245 245 245 246 247 247 249 250 252 253 255 255 254 255 256 258 262 266
278 277 276 276 274 271 270 268 267 266 265 263 261 259 256 255 254 253 252 251 250 249 248 247 247 246 246 245 245 246 246 245 245 245 245 246 247 248 250 251 252 254 254 254 254 255 258 261 265
280 279 278 277 275 272 270 268 267 266 265 263 261 259 256 254 253 252 251 250 250 250 248 247 247 247 247 246 245 245 246 246 245 245 244 245 247 248 250 251 252 252 253 253 253 254 257 260 263
282 282 280 278 276 273 270 267 266 265 264 262 261 260 257 253 252 251 250 249 250 250 249 248 247 247 246 247 246 246 245 245 245 245 244 245 246 247 249 250 251 251 252 252 252 254 256 259 261
286 284 281 279 278 275 271 267 266 265 264 262 260 259 257 253 251 250 249 249 249 249 249 249 248 247 246 246 246 246 245 245 245 245 244 244 245 246 248 249 250 250 251 251 251 253 256 258 260
289 286 283 281 279 277 273 269 268 267 264 262 260 258 257 253 251 249 248 248 247 248 248 249 248 247 246 246 246 245 245 245 245 244 244 244 244 245 247 248 249 249 250 250 251 252 255 258 259
292 288 285 284 284 281 277 273 270 268 266 263 260 257 255 250 249 248 248 247 247 246 246 247 248 247 246 246 245 244 243 243 244 244 244 244 244 245 245 247 247 248 249 250 250 251 253 256 259
296 292 288 287 287 284 281 278 274 271 268 265 261 258 255 250 248 247 248 248 247 246 246 246 247 246 246 245 244 244 243 242 242 242 243 243 243 244 244 245 246 246 247 248 249 250 252 255 257
299 295 292 290 290 288 284 283 280 274 269 267 263 259 256 252 249 248 248 248 247 246 246 246 245 245 245 244 243 243 242 242 242 241 241 242 242 242 242 243 245 245 246 248 250 250 251 253 256
303 299 295 293 295 293 287 285 283 278 273 269 267 263 258 251 249 249 249 248 247 247 246 245 245 245 244 243 243 242 242 241 240 240 240 240 240 240 241 241 243 243 244 246 248 249 250 252 255
308 304 300 298 299 299 292 289 286 282 279 275 271 267 261 252 251 251 249 248 247 247 246 245 244 244 244 243 242 241 241 240 239 239 238 238 238 239 239 239 242 242 243 245 245 248 250 251 254
313 309 305 301 302 302 297 294 288 286 283 280 275 270 264 254 253 253 252 252 250 247 246 245 244 243 243 242 241 240 239 238 237 236 236 236 237 237 238 238 240 242 242 242 244 246 249 251 252
320 315 311 307 306 305 300 299 296 289 286 282 278 272 266 260 257 255 255 254 251 248 246 244 243 242 242 241 239 238 237 236 235 235 235 234 234 235 236 237 238 240 242 242 242 244 247 249 252
324 321 318 317 313 310 306 304 302 296 290 285 280 273 268 266 262 258 256 254 250 247 247 244 242 240 239 238 237 236 235 234 233 233 232 232 232 234 235 235 236 238 240 241 241 242 245 249 251
328 323 321 320 319 315 312 312 307 301 296 290 285 278 274 271 266 260 258 255 252 249 246 243 241 240 239 236 236 236 234 233 232 230 230 229 230 231 231 233 235 236 238 240 241 241 244 248 250
331 327 326 324 322 317 315 315 309 303 301 296 291 285 279 276 270 264 259 254 251 248 245 242 239 238 238 237 235 235 233 232 230 228 227 227 229 230 230 231 233 234 237 241 241 241 243 247 249
335 332 328 325 322 321 318 317 315 308 304 300 296 291 285 279 272 266 261 257 253 248 243 240 238 238 237 237 235 234 233 232 231 228 226 226 228 229 229 230 232 233 235 239 240 240 242 246 248
335 334 330 326 324 322 320 319 321 315 309 306 301 296 290 286 279 269 263 260 255 249 244 240 239 238 237 236 235 234 233 231 228 226 225 225 226 228 228 229 230 231 233 237 239 240 242 245 248
333 334 331 327 326 325 324 320 321 318 315 311 306 301 296 292 284 273 264 261 256 249 244 240 238 240 239 237 235 234 233 230 227 226 224 225 226 227 228 228 229 231 233 236 239 240 242 244 247
331 333 332 329 328 327 327 324 323 321 318 314 309 304 299 297 290 282 271 263 258 250 244 240 239 240 240 237 235 235 234 230 226 224 224 225 226 228 228 228 229 231 232 234 238 241 241 243 246
332 333 332 329 327 325 325 324 325 322 319 315 311 307 305 300 293 285 275 267 257 250 244 243 241 239 237 235 235 237 234 230 226 223 223 224 225 227 227 229 229 231 232 235 238 241 242 242 244
332 331 330 327 326 323 323 322 322 321 317 314 312 309 307 301 293 288 277 264 255 247 246 245 244 242 239 236 237 238 234 228 225 225 223 224 225 226 227 228 228 230 231 234 237 241 242 242 245
330 330 329 328 326 325 324 323 324 321 317 315 312 308 306 300 293 286 275 264 255 251 247 243 242 241 239 236 234 233 230 228 227 227 224 223 224 226 226 227 228 228 230 233 236 240 241 242 245
329 329 327 325 324 323 323 325 324 321 318 316 315 311 305 300 292 281 270 260 256 255 251 246 245 243 240 237 232 232 228 229 227 226 226 224 224 226 226 227 228 229 230 232 234 238 241 242 245
325 326 325 325 323 322 321 323 323 319 317 314 313 310 305 300 294 285 275 266 261 256 253 250 249 245 240 237 233 230 227 227 226 225 224 222 223 226 227 228 229 229 229 232 234 237 239 242 244
Height
5826 5826 5826 5826 5827 5827 5828 5830 5831 5831 5831 5831 5831 5832 5832 5834 5836 5839 5839 5840 5841 5843 5844 5845 5847 5849 5850 5852 5853 5855 5857 5858 5860 5861 5863 5864 5865 5866 5867 5867 5868 5868 5868 5869 5869 5869 5869 5869 5869
5821 5821 5821 5821 5820 5821 5822 5824 5824 5825 5825 5824 5825 5825 5826 5827 5829 5831 5833 5834 5836 5838 5839 5840 5842 5844 5846 5847 5849 5851 5853 5855 5856 5858 5859 5861 5862 5863 5864 5865 5865 5866 5866 5866 5866 5867 5867 5867 5867
5815 5814 5814 5814 5814 5815 5816 5817 5817 5817 5817 5817 5818 5818 5819 5820 5822 5824 5826 5828 5830 5832 5834 5835 5837 5839 5841 5843 5845 5847 5849 5850 5852 5854 5855 5857 5858 5859 5860 5861 5862 5863 5863 5863 5864 5864 5864 5864 5865
5808 5807 5807 5807 5807 5809 5808 5808 5808 5809 5809 5809 5809 5810 5812 5813 5815 5817 5819 5821 5824 5826 5828 5830 5831 5833 5835 5838 5840 5842 5844 5846 5848 5849 5851 5852 5854 5855 5857 5858 5859 5859 5860 5860 5861 5861 5862 5862 5862
5800 5799 5799 5799 5800 5800 5799 5799 5799 5799 5800 5800 5800 5802 5803 5805 5807 5809 5811 5813 5816 5818 5821 5823 5825 5827 5829 5831 5834 5836 5838 5840 5842 5844 5846 5848 5849 5851 5852 5854 5855 5856 5856 5857 5858 5858 5859 5859 5859
5791 5790 5790 5790 5790 5790 5789 5788 5789 5789 5790 5790 5791 5792 5794 5796 5798 5801 5803 5805 5808 5810 5813 5815 5818 5820 5822 5825 5827 5830 5832 5834 5836 5839 5841 5843 5844 5846 5847 5849 5850 5851 5852 5853 5854 5855 5855 5856 5856
5782 5781 5780 5780 5780 5779 5779 5777 5778 5778 5779 5780 5780 5781 5784 5787 5789 5791 5794 5796 5799 5802 5804 5807 5810 5812 5815 5818 5820 5823 5825 5828 5830 5832 5835 5837 5839 5840 5842 5844 5845 5847 5848 5849 5850 5851 5852 5852 5852
5771 5770 5769 5768 5767 5767 5767 5765 5765 5766 5767 5768 5768 5769 5772 5776 5778 5780 5783 5786 5789 5792 5795 5799 5801 5804 5807 5810 5812 5815 5818 5821 5823 5825 5828 5831 5833 5834 5836 5838 5840 5842 5843 5844 5846 5847 5847 5848 5849
5760 5760 5757 5756 5755 5755 5754 5752 5752 5752 5754 5755 5755 5756 5760 5763 5766 5769 5772 5775 5779 5782 5785 5789 5792 5795 5798 5801 5804 5807 5810 5813 5816 5818 5821 5824 5826 5828 5830 5832 5834 5836 5838 5839 5841 5842 5843 5844 5845
5749 5747 5746 5744 5742 5740 5739 5738 5738 5739 5740 5741 5742 5743 5745 5748 5752 5756 5760 5764 5767 5771 5774 5778 5782 5786 5789 5792 5795 5798 5801 5804 5808 5811 5814 5816 5819 5821 5824 5826 5828 5830 5832 5834 5835 5837 5838 5839 5840
5738 5736 5734 5732 5729 5727 5725 5725 5724 5724 5726 5726 5727 5729 5730 5733 5737 5742 5747 5751 5755 5759 5763 5766 5770 5774 5778 5782 5785 5789 5792 5796 5799 5802 5806 5809 5811 5814 5816 5819 5821 5823 5825 5827 5829 5831 5833 5834 5835
5728 5725 5722 5720 5717 5714 5712 5711 5711 5710 5711 5711 5712 5713 5715 5718 5722 5727 5732 5737 5741 5746 5750 5754 5757 5761 5766 5770 5774 5778 5782 5786 5790 5793 5797 5800 5803 5806 5809 5811 5814 5816 5819 5821 5823 5825 5827 5828 5830
5719 5715 5711 5708 5705 5702 5700 5699 5698 5697 5696 5695 5696 5697 5699 5703 5707 5712 5717 5722 5727 5732 5737 5741 5744 5748 5753 5757 5762 5766 5771 5775 5779 5783 5787 5791 5794 5798 5801 5804 5806 5809 5811 5814 5816 5819 5821 5822 5824
5710 5706 5702 5698 5695 5692 5690 5689 5685 5684 5682 5681 5681 5682 5684 5688 5691 5697 5702 5707 5711 5716 5721 5726 5730 5734 5739 5744 5748 5754 5759 5763 5768 5772 5777 5781 5785 5789 5792 5796 5798 5801 5804 5807 5810 5812 5814 5816 5817
5702 5698 5694 5689 5685 5682 5680 5679 5675 5672 5669 5669 5669 5669 5670 5673 5677 5682 5686 5690 5695 5700 5705 5710 5714 5719 5723 5729 5734 5740 5745 5751 5756 5761 5766 5770 5775 5779 5783 5787 5791 5794 5797 5800 5802 5804 5807 5809 5811
5694 5690 5686 5682 5677 5672 5671 5670 5666 5660 5659 5658 5658 5658 5658 5661 5664 5668 5671 5675 5679 5683 5688 5693 5698 5702 5707 5713 5718 5724 5730 5736 5743 5749 5754 5760 5764 5769 5774 5778 5782 5785 5789 5792 5794 5797 5800 5802 5804
5687 5683 5679 5674 5669 5665 5661 5660 5657 5652 5650 5648 5648 5647 5648 5649 5652 5655 5658 5660 5664 5667 5672 5676 5681 5686 5691 5696 5702 5708 5715 5721 5729 5735 5742 5748 5754 5759 5764 5768 5773 5777 5780 5783 5786 5790 5792 5795 5797
5681 5676 5671 5666 5662 5658 5654 5651 5648 5645 5642 5640 5638 5638 5638 5638 5640 5642 5644 5646 5649 5653 5656 5661 5666 5670 5675 5680 5685 5691 5698 5706 5714 5721 5729 5736 5742 5748 5753 5759 5763 5767 5771 5775 5778 5781 5784 5787 5789
5675 5670 5665 5661 5655 5652 5648 5644 5641 5637 5634 5632 5630 5629 5628 5628 5628 5629 5631 5632 5635 5638 5641 5646 5651 5655 5659 5664 5670 5676 5683 5691 5699 5707 5715 5723 5730 5736 5742 5748 5753 5757 5761 5765 5769 5773 5776 5778 5781
5670 5665 5660 5657 5650 5646 5643 5640 5635 5631 5628 5625 5623 5620 5619 5618 5617 5617 5619 5620 5622 5626 5629 5632 5637 5641 5645 5650 5656 5662 5669 5676 5685 5693 5701 5709 5717 5723 5730 5737 5743 5748 5752 5756 5760 5764 5767 5770 5773
5666 5661 5656 5651 5646 5642 5638 5636 5631 5626 5622 5619 5616 5613 5611 5609 5608 5608 5608 5610 5612 5615 5617 5620 5624 5628 5633 5638 5643 5649 5654 5662 5670 5678 5687 5696 5704 5711 5718 5725 5732 5737 5742 5747 5751 5754 5759 5762 5765
5663 5658 5652 5646 5641 5638 5633 5629 5627 5621 5617 5613 5609 5606 5603 5602 5600 5599 5599 5600 5602 5604 5606 5609 5613 5617 5622 5626 5631 5636 5642 5650 5659 5667 5675 5683 5691 5698 5706 5713 5720 5726 5732 5737 5741 5745 5749 5753 5756
5659 5653 5648 5642 5637 5633 5628 5623 5622 5616 5612 5607 5604 5600 5597 5595 5594 5592 5592 5592 5593 5594 5596 5600 5604 5607 5611 5616 5620 5625 5631 5639 5647 5655 5663 5671 5678 5686 5694 5702 5709 5715 5721 5727 5731 5735 5739 5744 5747
5654 5650 5644 5639 5634 5630 5624 5619 5615 5610 5606 5602 5599 5595 5591 5589 5587 5585 5585 5585 5585 5586 5588 5591 5595 5598 5602 5606 5610 5614 5620 5627 5635 5643 5651 5659 5667 5675 5683 5691 5698 5705 5711 5717 5721 5726 5730 5734 5739
5651 5645 5640 5634 5628 5625 5619 5614 5611 5606 5601 5597 5593 5590 5586 5583 5581 5579 5578 5578 5578 5579 5580 5584 5587 5590 5593 5596 5600 5605 5610 5616 5624 5633 5641 5648 5656 5664 5673 5681 5688 5694 5701 5707 5712 5716 5721 5725 5729
5646 5641 5635 5628 5623 5619 5616 5610 5607 5602 5597 5592 5589 5584 5581 5578 5576 5574 5573 5572 5572 5573 5574 5577 5579 5582 5584 5588 5592 5596 5600 5607 5615 5623 5631 5639 5646 5654 5663 5670 5678 5685 5690 5697 5702 5707 5712 5716 5720
5641 5636 5631 5624 5618 5613 5610 5606 5602 5597 5593 5588 5584 5579 5576 5573 5571 5568 5567 5566 5566 5567 5568 5570 5572 5574 5577 5580 5583 5587 5592 5598 5606 5614 5622 5630 5637 5645 5652 5660 5667 5675 5681 5687 5692 5697 5702 5707 5711
5637 5631 5626 5619 5612 5607 5604 5600 5597 5592 5587 5583 5579 5575 5571 5568 5565 5563 5561 5561 5561 5562 5563 5564 5565 5567 5570 5572 5576 5580 5585 5591 5598 5605 5613 5621 5629 5635 5643 5650 5658 5665 5671 5677 5682 5688 5693 5698 5702
5633 5627 5620 5614 5608 5602 5596 5598 5593 5586 5581 5577 5573 5569 5565 5562 5559 5557 5556 5555 5555 5556 5557 5558 5559 5561 5563 5566 5569 5573 5578 5584 5590 5597 5605 5612 5619 5627 5634 5641 5648 5654 5661 5667 5673 5679 5685 5689 5693
5627 5621 5616 5611 5605 5597 5590 5593 5587 5581 5575 5571 5567 5564 5560 5557 5554 5552 5551 5551 5550 5550 5551 5551 5552 5553 5556 5558 5562 5566 5571 5576 5582 5590 5597 5604 5610 5617 5625 5632 5639 5645 5651 5658 5665 5671 5675 5679 5684